EW0626 Weather Reports


time (UTC)temp
C
wind
direction
speed
KPH
gust
KPH
rain 1hr
cm
rain 24hr
cm
rain mn
cm
humidity
%
barometer
mb
20240723064049 20 83 0.0 0.0 0.00 0.00 0.00 97 999.8
20240723063547 21 83 0.0 0.0 0.00 0.00 0.00 97 999.7
20240723063044 21 83 0.0 0.0 0.00 0.00 0.00 97 999.8
20240723062542 21 83 0.0 0.0 0.00 0.00 0.00 97 999.9
20240723062041 21 83 0.0 0.0 0.00 0.00 0.00 97 999.8
20240723061539 21 83 0.0 0.0 0.00 0.00 0.00 97 1000.0
20240723061039 21 83 0.0 0.0 0.00 0.00 0.00 97 1000.0
20240723060538 21 83 0.0 0.0 0.00 0.00 0.00 97 1000.0
20240723060040 21 83 0.0 0.0 0.00 0.00 0.00 97 1000.0
20240723055538 21 83 0.0 0.0 0.00 0.00 0.00 97 1000.2
20240723055035 21 83 0.0 0.0 0.00 0.00 0.00 97 1000.2
20240723054533 21 83 0.0 0.0 0.00 0.00 0.00 97 1000.2
20240723054303 21 83 0.0 0.0 0.00 0.00 0.00 97 1000.2
20240723053534 21 83 0.0 0.0 0.00 0.00 0.00 97 1000.2
20240723053304 21 83 0.0 0.0 0.00 0.00 0.00 97 1000.2
20240723052530 21 83 0.0 0.0 0.00 0.00 0.00 97 1000.3
20240723052031 21 83 0.0 1.6 0.00 0.00 0.00 97 1000.3
20240723051531 21 83 0.0 1.6 0.00 0.00 0.00 97 1000.2
20240723051028 21 83 0.0 1.6 0.00 0.00 0.00 97 1000.3
20240723050530 21 83 0.0 0.0 0.00 0.00 0.00 97 1000.2
20240723050023 21 83 0.0 0.0 0.00 0.00 0.00 96 1000.1
20240723045517 21 83 0.0 0.0 0.00 0.00 0.00 96 1000.2
20240723045244 21 83 0.0 0.0 0.00 0.00 0.00 97 1000.1
20240723044506 21 83 0.0 0.0 0.00 0.00 0.00 96 1000.2
20240723044000 21 83 0.0 0.0 0.00 0.00 0.00 96 1000.2
20240723043454 21 83 0.0 0.0 0.00 0.00 0.00 96 1000.0
20240723042948 21 83 0.0 0.0 0.00 0.00 0.00 96 1000.1
20240723042442 21 83 0.0 0.0 0.00 0.00 0.00 96 1000.1
20240723041936 21 83 0.0 0.0 0.00 0.00 0.00 96 1000.1
20240723041428 21 83 0.0 0.0 0.00 0.00 0.00 96 1000.1
20240723040924 21 83 0.0 0.0 0.00 0.00 0.00 96 1000.2
20240723040419 21 83 0.0 0.0 0.00 0.00 0.00 96 1000.1
20240723035912 21 83 0.0 0.0 0.00 0.00 0.00 95 1000.1
20240723035405 21 83 0.0 1.6 0.00 0.00 0.00 95 999.9
20240723035130 21 83 1.6 3.2 0.00 0.00 0.00 96 999.9
20240723034354 21 83 0.0 3.2 0.00 0.00 0.00 96 1000.0
20240723033846 21 50 0.0 0.0 0.00 0.00 0.00 95 1000.0
20240723033342 21 50 0.0 0.0 0.00 0.00 0.00 95 1000.0
20240723032836 21 50 0.0 0.0 0.00 0.00 0.00 95 999.9
20240723032330 21 50 0.0 0.0 0.00 0.00 0.00 95 999.9
20240723031823 21 50 0.0 0.0 0.00 0.00 0.00 95 999.9
20240723031318 21 50 0.0 0.0 0.00 0.00 0.00 94 999.9
20240723030810 21 50 0.0 0.0 0.00 0.00 0.00 94 999.9
20240723030306 22 50 0.0 0.0 0.00 0.00 0.00 94 1000.0
20240723025800 22 50 0.0 0.0 0.00 0.00 0.00 93 999.8
20240723025254 22 50 0.0 0.0 0.00 0.00 0.00 93 999.7
20240723024746 22 50 0.0 0.0 0.00 0.00 0.00 93 999.7
20240723024242 22 50 0.0 1.6 0.00 0.00 0.00 93 999.7
20240723024006 22 50 0.0 1.6 0.00 0.00 0.00 93 999.6
20240723023230 22 50 0.0 0.0 0.00 0.00 0.00 92 999.5
20240723022724 22 50 0.0 0.0 0.00 0.00 0.00 92 999.7
20240723022218 22 50 0.0 0.0 0.00 0.00 0.00 91 999.7
20240723021944 22 50 0.0 0.0 0.00 0.00 0.00 91 999.6
20240723021206 23 50 0.0 0.0 0.00 0.00 0.00 91 999.6
20240723020700 23 50 0.0 0.0 0.00 0.00 0.00 91 999.5
20240723020153 23 50 0.0 0.0 0.00 0.00 0.00 90 999.4
20240723015648 23 50 0.0 0.0 0.00 0.00 0.00 89 999.3
20240723015413 23 50 0.0 1.6 0.00 0.00 0.00 89 999.3
20240723014634 23 50 0.0 1.6 0.00 0.00 0.00 89 999.2
20240723014130 23 50 0.0 0.0 0.00 0.00 0.00 87 999.2
20240723013624 24 50 0.0 0.0 0.00 0.00 0.00 87 999.2
20240723013349 24 50 0.0 1.6 0.00 0.00 0.00 86 999.1
20240723012611 25 50 0.0 1.6 0.00 0.00 0.00 86 999.1
20240723012106 25 50 0.0 0.0 0.00 0.00 0.00 83 999.1
20240723011831 25 50 0.0 0.0 0.00 0.00 0.00 83 999.0
20240723011325 26 50 0.0 0.0 0.00 0.00 0.00 82 999.0
20240723010548 26 17 0.0 0.0 0.00 0.00 0.00 81 998.9
20240723010044 26 18 0.0 0.0 0.00 0.00 0.00 79 998.8
20240723005822 27 18 0.0 0.0 0.00 0.00 0.00 77 998.8
20240723005545 27 18 0.0 0.0 0.00 0.00 0.00 78 998.7
20240723004541 27 18 0.0 0.0 0.00 0.00 0.00 75 998.7
20240723004312 28 18 0.0 0.0 0.00 0.00 0.00 74 998.8
20240723003539 28 18 0.0 0.0 0.00 0.00 0.00 76 998.7
20240723003038 28 18 0.0 0.0 0.00 0.00 0.00 76 998.6
20240723002534 28 18 0.0 1.6 0.00 0.00 0.00 75 998.6
20240723002035 28 17 0.0 1.6 0.00 0.00 0.00 72 998.5
20240723001535 29 10 0.0 0.0 0.00 0.00 0.00 71 998.5
20240723001305 29 354 0.0 0.0 0.00 0.00 0.00 69 998.5
20240723000807 29 354 0.0 1.6 0.00 0.00 0.00 68 998.4
20240723000038 30 354 0.0 1.6 0.00 0.00 0.00 65 998.4
20240722235533 30 354 0.0 0.0 0.00 0.00 0.00 67 998.4
20240722235033 30 354 0.0 0.0 0.00 0.00 0.00 66 998.3
20240722234532 29 354 0.0 1.6 0.00 0.00 0.00 71 998.3
20240722234034 28 354 0.0 1.6 0.00 0.00 0.00 72 998.2
20240722233528 28 339 1.6 4.8 0.00 0.00 0.00 71 998.1
20240722233022 28 339 1.6 4.8 0.00 0.00 0.00 70 998.0
20240722232523 28 347 1.6 4.8 0.00 0.00 0.00 69 998.1
20240722232022 28 359 1.6 4.8 0.00 0.00 0.00 68 997.9
20240722231755 28 1 1.6 4.8 0.00 0.00 0.00 72 997.8
20240722231021 28 337 3.2 4.8 0.00 0.00 0.00 70 998.0
20240722230521 28 337 3.2 6.4 0.00 0.00 0.00 70 998.0
20240722230019 28 340 3.2 8.0 0.00 0.00 0.00 70 998.1
20240722225518 28 338 3.2 8.0 0.00 0.00 0.00 72 998.1
20240722225253 28 357 3.2 8.0 0.00 0.00 0.00 70 998.1
20240722224750 28 354 4.8 11.3 0.00 0.00 0.00 70 998.1
20240722224249 28 328 4.8 11.3 0.00 0.00 0.00 71 998.2
20240722223515 28 329 4.8 9.7 0.00 0.00 0.00 70 998.2
20240722223017 28 324 6.4 11.3 0.00 0.00 0.00 70 998.2
20240722222522 28 10 4.8 8.0 0.00 0.00 0.00 70 998.4
20240722222513 28 356 6.4 11.3 0.00 0.00 0.00 68 998.3
20240722222012 28 350 4.8 9.7 0.00 0.00 0.00 69 998.3
20240722221013 28 348 4.8 9.7 0.00 0.00 0.00 70 998.3
20240722220512 28 4 4.8 11.3 0.00 0.00 0.00 71 998.2
20240722220244 28 0 4.8 11.3 0.00 0.00 0.00 70 998.3
20240722215511 28 321 4.8 11.3 0.00 0.00 0.00 71 998.3
20240722215013 28 1 6.4 16.1 0.00 0.00 0.00 72 998.5
20240722214514 28 18 4.8 16.1 0.00 0.00 0.00 72 998.2
20240722214014 28 355 4.8 8.0 0.00 0.00 0.00 68 998.4
20240722213511 28 325 4.8 11.3 0.00 0.00 0.00 70 998.3
20240722213012 28 340 4.8 12.9 0.00 0.00 0.00 70 998.4
20240722212513 28 320 4.8 12.9 0.00 0.00 0.00 71 998.3
20240722212012 28 339 6.4 12.9 0.00 0.00 0.00 69 998.4
20240722211512 28 335 6.4 12.9 0.00 0.00 0.00 71 998.5
20240722211011 28 4 8.0 12.9 0.00 0.00 0.00 68 998.4
20240722210511 28 341 8.0 12.9 0.00 0.00 0.00 69 998.5
20240722210012 28 293 6.4 12.9 0.00 0.00 0.00 68 998.5
20240722205513 28 327 8.0 16.1 0.00 0.00 0.00 69 998.5
20240722205009 28 354 8.0 16.1 0.00 0.00 0.00 68 998.5
20240722205002 28 315 6.4 14.5 0.00 0.00 0.00 69 998.7
20240722204635 29 310 4.8 14.5 0.00 0.00 0.00 68 998.9
20240722203456 28 1 6.4 12.9 0.00 0.00 0.00 67 998.9
20240722202956 29 358 4.8 12.9 0.00 0.00 0.00 68 999.0
20240722202725 29 6 4.8 11.3 0.00 0.00 0.00 69 999.0
20240722202230 29 77 6.4 12.9 0.00 0.00 0.00 68 999.0
20240722201458 28 316 6.4 12.9 0.00 0.00 0.00 71 999.0
20240722201451 29 352 4.8 12.9 0.00 0.00 0.00 67 999.1
20240722200453 28 349 8.0 12.9 0.00 0.00 0.00 68 999.1
20240722195949 28 326 6.4 12.9 0.00 0.00 0.00 70 999.1
20240722195448 28 283 4.8 12.9 0.00 0.00 0.00 72 999.3
20240722195222 28 343 6.4 20.9 0.00 0.00 0.00 69 999.3
20240722194718 28 25 6.4 20.9 0.00 0.00 0.00 66 999.4
20240722193948 28 310 4.8 12.9 0.00 0.00 0.00 72 999.4
20240722193448 28 355 8.0 12.9 0.00 0.00 0.00 69 999.5
20240722192948 28 353 6.4 14.5 0.00 0.00 0.00 70 999.5
20240722192447 28 340 6.4 14.5 0.00 0.00 0.00 73 999.5
20240722191948 28 307 8.0 14.5 0.00 0.00 0.00 74 999.4
20240722191443 28 333 6.4 14.5 0.00 0.00 0.00 73 999.6
20240722190937 28 326 6.4 11.3 0.00 0.00 0.00 76 999.6
20240722190431 28 308 6.4 11.3 0.00 0.00 0.00 74 999.7
20240722190156 28 345 4.8 11.3 0.00 0.00 0.00 72 999.7
20240722185651 28 324 4.8 12.9 0.00 0.00 0.00 73 999.8
20240722185415 28 358 6.4 12.9 0.00 0.00 0.00 76 999.8
20240722184407 28 328 4.8 12.9 0.00 0.00 0.00 73 999.8
20240722183859 28 359 3.2 8.0 0.00 0.00 0.00 75 999.7
20240722183355 28 289 4.8 12.9 0.00 0.00 0.00 73 999.7
20240722182849 28 319 6.4 12.9 0.00 0.00 0.00 75 999.8
20240722182342 28 344 4.8 12.9 0.00 0.00 0.00 75 999.8
20240722181837 28 322 4.8 9.7 0.00 0.00 0.00 76 999.9
20240722181330 28 310 6.4 12.9 0.00 0.00 0.00 76 999.9
20240722180825 27 354 4.8 12.9 0.00 0.00 0.00 77 1000.0
20240722180319 27 293 4.8 11.3 0.00 0.00 0.00 76 999.9
20240722175813 27 346 4.8 11.3 0.00 0.00 0.00 77 1000.0
20240722175536 27 28 4.8 8.0 0.00 0.00 0.00 76 1000.1
20240722174800 27 8 4.8 8.0 0.00 0.00 0.00 77 1000.2
20240722174254 28 305 6.4 11.3 0.00 0.00 0.00 76 1000.2
20240722173748 28 304 4.8 12.9 0.00 0.00 0.00 73 1000.2
20240722173243 28 12 3.2 12.9 0.00 0.00 0.00 77 1000.0
20240722172736 28 325 3.2 9.7 0.00 0.00 0.00 73 1000.1
20240722172231 28 31 3.2 12.9 0.00 0.00 0.00 76 1000.2
20240722171725 28 310 4.8 12.9 0.00 0.00 0.00 74 1000.3
20240722171218 28 312 4.8 9.7 0.00 0.00 0.00 74 1000.3
20240722170712 27 84 6.4 11.3 0.00 0.00 0.00 75 1000.3
20240722170206 27 357 6.4 11.3 0.00 0.00 0.00 76 1000.3
20240722165701 27 292 4.8 11.3 0.00 0.00 0.00 76 1000.4
20240722165154 27 337 3.2 9.7 0.00 0.00 0.00 76 1000.4
20240722164647 27 187 4.8 9.7 0.00 0.00 0.00 76 1000.4
20240722164143 27 302 4.8 9.7 0.00 0.00 0.00 78 1000.4
20240722163636 27 302 1.6 8.0 0.00 0.00 0.00 79 1000.4
20240722163129 27 305 3.2 9.7 0.00 0.00 0.00 78 1000.4
20240722162624 27 324 4.8 9.7 0.00 0.00 0.00 77 1000.5
20240722162118 27 309 3.2 9.7 0.00 0.00 0.00 78 1000.5
20240722161843 26 320 3.2 8.0 0.00 0.00 0.00 78 1000.5
20240722161107 26 293 3.2 8.0 0.00 0.00 0.00 79 1000.5
20240722160601 26 32 3.2 8.0 0.00 0.00 0.00 81 1000.5
20240722160327 26 25 3.2 6.4 0.00 0.00 0.00 79 1000.5
20240722155558 26 335 3.2 8.0 0.00 0.00 0.00 80 1000.6
20240722155326 26 333 4.8 9.7 0.00 0.00 0.00 81 1000.7
20240722154557 26 321 3.2 9.7 0.00 0.00 0.00 80 1000.6
20240722154055 26 48 3.2 6.4 0.00 0.00 0.00 81 1000.6
20240722153555 26 23 3.2 6.4 0.00 0.00 0.00 80 1000.4
20240722153326 26 309 3.2 6.4 0.00 0.00 0.00 81 1000.4
20240722152552 26 331 3.2 6.4 0.00 0.00 0.00 80 1000.4
20240722152102 26 117 1.6 4.8 0.00 0.00 0.00 80 1000.3
20240722152054 26 34 1.6 4.8 0.00 0.00 0.00 80 1000.3
20240722151052 26 124 1.6 6.4 0.00 0.00 0.00 83 1000.3
20240722150552 25 89 3.2 6.4 0.00 0.00 0.00 82 1000.3
20240722150049 25 90 1.6 6.4 0.00 0.00 0.00 82 1000.3
20240722145550 25 77 3.2 8.0 0.00 0.00 0.00 83 1000.2
20240722145050 25 20 3.2 8.0 0.00 0.00 0.00 83 1000.2
20240722144551 25 54 1.6 6.4 0.00 0.00 0.00 85 1000.2
20240722144316 24 89 1.6 6.4 0.00 0.00 0.00 85 1000.2
20240722143537 23 35 1.6 6.4 0.00 0.00 0.00 87 1000.2
20240722143035 23 34 3.2 6.4 0.00 0.00 0.00 87 1000.2
20240722142536 23 17 3.2 6.4 0.00 0.00 0.00 87 1000.3
20240722142032 23 25 3.2 8.0 0.00 0.00 0.00 87 1000.2
20240722141807 23 37 4.8 11.3 0.00 0.00 0.00 88 1000.2
20240722141033 23 337 3.2 11.3 0.00 0.00 0.00 87 1000.3
20240722140535 23 14 1.6 6.4 0.00 0.00 0.00 89 1000.2
20240722140040 23 30 1.6 8.0 0.00 0.00 0.00 90 1000.2
20240722135531 22 356 3.2 8.0 0.00 0.00 0.00 89 1000.2
20240722135309 22 357 1.6 6.4 0.00 0.00 0.00 90 1000.3
20240722135030 22 350 3.2 6.4 0.00 0.00 0.00 91 1000.2
20240722134303 22 340 1.6 6.4 0.00 0.00 0.00 91 1000.2
20240722133533 22 359 3.2 6.4 0.00 0.00 0.00 91 1000.2
20240722133031 21 13 3.2 6.4 0.00 0.00 0.00 92 1000.2
20240722132803 21 353 1.6 4.8 0.00 0.00 0.00 92 1000.1
20240722132031 21 43 1.6 4.8 0.00 0.00 0.00 93 1000.1
20240722131811 21 11 0.0 3.2 0.00 0.00 0.00 93 1000.2
20240722131533 21 5 0.0 3.2 0.00 0.00 0.00 93 1000.1
20240722130533 21 354 0.0 3.2 0.00 0.00 0.00 94 1000.2
20240722130030 21 6 0.0 1.6 0.00 0.00 0.00 94 1000.1
20240722125532 21 41 0.0 1.6 0.00 0.00 0.00 95 1000.0
20240722125301 21 335 0.0 3.2 0.00 0.00 0.00 94 999.9
20240722124532 21 333 0.0 3.2 0.00 0.00 0.00 95 999.9
20240722124032 20 303 0.0 3.2 0.00 0.00 0.00 95 999.9
20240722123533 20 311 0.0 4.8 0.00 0.00 0.00 95 999.9
20240722123032 20 326 1.6 4.8 0.00 0.00 0.00 95 999.7
20240722122533 20 336 1.6 4.8 0.00 0.00 0.00 96 999.6
20240722122032 20 345 0.0 3.2 0.00 0.00 0.00 96 999.4
20240722121532 20 359 0.0 1.6 0.00 0.00 0.00 96 999.3
20240722121026 20 15 0.0 1.6 0.00 0.00 0.00 96 999.3
20240722120527 20 341 0.0 0.0 0.00 0.00 0.00 96 999.2
20240722120024 20 330 0.0 1.6 0.00 0.00 0.00 97 999.2
20240722115521 20 330 0.0 1.6 0.00 0.00 0.00 96 999.1
20240722115019 20 330 0.0 1.6 0.00 0.00 0.00 97 999.2
20240722114752 20 0 0.0 0.0 0.00 0.00 0.00 97 999.3
20240722114249 20 0 0.0 0.0 0.00 0.00 0.00 97 999.3
20240722113516 20 0 0.0 0.0 0.00 0.00 0.00 97 999.2
20240722113018 20 358 0.0 0.0 0.00 0.00 0.00 97 999.2
20240722112515 20 358 0.0 0.0 0.00 0.00 0.00 96 999.3
20240722112013 20 358 0.0 0.0 0.00 0.00 0.00 96 999.2
20240722111741 20 358 0.0 0.0 0.00 0.00 0.00 96 999.3
20240722111010 20 358 0.0 0.0 0.00 0.00 0.00 96 999.3
20240722110508 20 358 0.0 0.0 0.00 0.00 0.00 96 999.3
20240722110241 20 358 0.0 0.0 0.00 0.00 0.00 96 999.2
20240722105506 20 358 0.0 0.0 0.00 0.00 0.00 96 999.1
20240722105008 20 358 0.0 0.0 0.00 0.00 0.00 96 999.1
20240722104502 20 358 0.0 0.0 0.00 0.00 0.00 96 999.2
20240722103956 20 358 0.0 0.0 0.00 0.00 0.00 96 999.2
20240722103449 20 358 0.0 0.0 0.00 0.00 0.00 96 999.2
20240722102943 20 358 0.0 1.6 0.00 0.00 0.00 96 999.2
20240722102437 20 4 0.0 3.2 0.00 0.00 0.00 96 999.1
20240722101931 20 29 1.6 3.2 0.00 0.00 0.00 96 999.1
20240722101426 20 340 1.6 3.2 0.00 0.00 0.00 96 999.1
20240722100920 20 336 0.0 3.2 0.00 0.00 0.00 96 999.1
20240722100414 20 40 0.0 0.0 0.00 0.00 0.00 96 999.0
20240722095907 20 64 0.0 0.0 0.00 0.00 0.00 96 998.9
20240722095402 20 63 0.0 0.0 0.00 0.00 0.00 96 999.0
20240722094856 20 63 0.0 0.0 0.00 0.00 0.00 96 998.9
20240722094350 20 64 0.0 0.0 0.00 0.00 0.00 96 998.9
20240722093844 20 64 0.0 1.6 0.00 0.00 0.00 96 998.7
20240722093338 20 44 0.0 1.6 0.00 0.00 0.00 96 998.7
20240722093103 20 323 0.0 0.0 0.00 0.00 0.00 96 998.8
20240722092326 20 323 0.0 0.0 0.00 0.00 0.00 96 998.9
20240722092051 20 323 0.0 1.6 0.00 0.00 0.00 96 999.0
20240722091319 20 323 0.0 3.2 0.00 0.00 0.00 96 998.9
20240722090818 20 321 0.0 3.2 0.00 0.00 0.00 96 998.9
20240722090315 20 325 0.0 3.2 0.00 0.00 0.00 96 998.8
20240722085813 20 339 0.0 1.6 0.00 0.00 0.00 96 998.8
20240722085549 20 295 0.0 1.6 0.00 0.00 0.00 95 998.9
20240722085312 20 297 0.0 1.6 0.00 0.00 0.00 95 998.8
20240722084312 20 348 0.0 0.0 0.00 0.00 0.00 95 998.8
20240722083813 20 348 0.0 0.0 0.00 0.00 0.00 95 998.9
20240722083312 20 348 0.0 0.0 0.00 0.00 0.00 94 998.9
20240722082810 20 348 0.0 0.0 0.00 0.00 0.00 94 998.9
20240722082307 20 348 0.0 0.0 0.00 0.00 0.00 94 998.9
20240722081806 20 348 0.0 0.0 0.00 0.00 0.00 94 998.9
20240722081311 21 348 0.0 0.0 0.00 0.00 0.00 94 999.0
20240722081303 21 348 0.0 0.0 0.00 0.00 0.00 94 999.0
20240722080301 21 348 0.0 0.0 0.00 0.00 0.00 94 999.1
20240722075801 21 348 0.0 0.0 0.00 0.00 0.00 94 999.1
20240722075259 21 348 0.0 0.0 0.00 0.00 0.00 94 999.2
20240722074756 21 348 0.0 0.0 0.00 0.00 0.00 94 999.1
20240722074257 21 348 0.0 0.0 0.00 0.00 0.00 94 999.1
20240722074028 21 348 0.0 3.2 0.00 0.00 0.00 94 999.2
20240722073251 21 348 0.0 3.2 0.00 0.00 0.00 94 999.2
20240722072751 21 23 0.0 0.0 0.00 0.00 0.00 94 999.3
20240722072251 21 23 0.0 0.0 0.00 0.00 0.00 94 999.3
20240722071750 21 45 0.0 0.0 0.00 0.00 0.00 94 999.3
20240722071249 21 45 0.0 0.0 0.00 0.00 0.00 94 999.4
20240722070747 21 46 0.0 0.0 0.00 0.00 0.00 94 999.4
20240722070245 21 46 0.0 0.0 0.00 0.00 0.00 94 999.4
20240722065742 21 46 0.0 0.0 0.00 0.00 0.00 94 999.5
20240722065241 21 46 0.0 0.0 0.00 0.00 0.00 93 999.5
20240722064740 21 46 0.0 0.0 0.00 0.00 0.00 93 999.6
20240722064238 21 46 0.0 0.0 0.00 0.00 0.00 93 999.6